Location: Unspecified
(48.7670°N, 0.0000°E)
Time: 03:43:01
(UTC+00:00)

Vanguard 2 Rocket - Pass Details

Date: 17 June 2019
Orbit: 554 x 3326 km, 32.9° (Epoch: 16 July)

Event Time Altitude Azimuth Distance (km) Brightness Sun altitude
Rises 23:10:59 0° 230° (SW) 4,780 10.3 -17.0°
Reaches altitude 10° 23:13:58 10° 222° (SW) 4,129 9.9 -17.1°
Maximum altitude 23:24:35 38° 160° (SSE) 3,394 9.2 -17.4°
Drops below altitude 10° 23:40:24 10° 102° (ESE) 6,111 10.9 -17.7°
Sets 23:46:02 0° 96° (E) 7,280 11.4 -17.8°
